• en Suisse
  • Liste des pays
  • À 7 jours
  • Température de l'eau
  • Carte satellitaire
  • Carte météo
  • Widgets météo
  • user-avatar
    Se connecter

    Météo par heure à Invercargill

    Ce jour, 18 Octobre, Jeudi

    Heure Température Précipitation Vent Pression Humidité
    00:00 +9°C° 0.1 mm 5 m/s 763 mmHg 97%
    01:00 +10°C° 0.1 mm 4 m/s 764 mmHg 95%
    02:00 +8°C° 0.1 mm 4 m/s 764 mmHg 94%
    03:00 +9°C° 0 mm 3 m/s 765 mmHg 94%
    04:00 +8°C° 0 mm 2 m/s 765 mmHg 94%
    05:00 +8°C° 0 mm 1 m/s 766 mmHg 94%
    06:00 +9°C° 0 mm 1 m/s 766 mmHg 87%
    07:00 +11°C° 0 mm 1 m/s 767 mmHg 81%
    08:00 +12°C° 0 mm 1 m/s 768 mmHg 74%
    09:00 +14°C° 0 mm 1 m/s 768 mmHg 59%
    10:00 +16°C° 0 mm 1 m/s 768 mmHg 44%
    11:00 +18°C° 0 mm 2 m/s 768 mmHg 31%
    12:00 +18°C° 0 mm 2 m/s 768 mmHg 29%
    13:00 +19°C° 0 mm 2 m/s 768 mmHg 27%
    14:00 +19°C° 0 mm 2 m/s 768 mmHg 25%
    15:00 +19°C° 0 mm 1 m/s 768 mmHg 32%
    16:00 +18°C° 0 mm 1 m/s 768 mmHg 39%
    17:00 +16°C° 0 mm 1 m/s 768 mmHg 46%
    18:00 +14°C° 0 mm 1 m/s 768 mmHg 50%
    19:00 +11°C° 0 mm 1 m/s 768 mmHg 54%
    20:00 +9°C° 0 mm 1 m/s 768 mmHg 59%
    21:00 +9°C° 0 mm 1 m/s 768 mmHg 60%
    22:00 +8°C° 0 mm 1 m/s 768 mmHg 61%
    23:00 +8°C° 0 mm 1 m/s 768 mmHg 62%

    Demain, 19 Octobre, Vendredi

    Heure Température Précipitation Vent Pression Humidité
    00:00 +7°C° 0 mm 2 m/s 767 mmHg 62%
    01:00 +7°C° 0 mm 2 m/s 767 mmHg 62%
    02:00 +7°C° 0 mm 2 m/s 767 mmHg 62%
    03:00 +7°C° 0 mm 2 m/s 767 mmHg 64%
    04:00 +7°C° 0 mm 2 m/s 767 mmHg 66%
    05:00 +8°C° 0 mm 3 m/s 767 mmHg 68%
    06:00 +10°C° 0 mm 3 m/s 766 mmHg 62%
    07:00 +12°C° 0 mm 3 m/s 766 mmHg 57%
    08:00 +16°C° 0 mm 3 m/s 766 mmHg 51%
    09:00 +18°C° 0 mm 4 m/s 766 mmHg 46%
    10:00 +19°C° 0 mm 4 m/s 765 mmHg 42%
    11:00 +21°C° 0 mm 4 m/s 765 mmHg 38%
    12:00 +21°C° 0 mm 5 m/s 765 mmHg 38%
    13:00 +21°C° 0 mm 5 m/s 764 mmHg 37%
    14:00 +22°C° 0 mm 5 m/s 764 mmHg 37%
    15:00 +21°C° 0 mm 5 m/s 764 mmHg 41%
    16:00 +19°C° 0 mm 4 m/s 764 mmHg 45%
    17:00 +18°C° 0 mm 4 m/s 764 mmHg 48%
    18:00 +17°C° 0 mm 3 m/s 764 mmHg 53%
    19:00 +14°C° 0 mm 3 m/s 764 mmHg 57%
    20:00 +13°C° 0 mm 2 m/s 764 mmHg 61%
    21:00 +13°C° 0 mm 2 m/s 764 mmHg 61%
    22:00 +13°C° 0 mm 2 m/s 764 mmHg 60%
    23:00 +13°C° 0 mm 2 m/s 764 mmHg 59%

    Après-demain, 20 Octobre, Samedi

    Heure Température Précipitation Vent Pression Humidité
    00:00 +13°C° 0 mm 2 m/s 764 mmHg 61%
    01:00 +12°C° 0 mm 2 m/s 764 mmHg 63%
    02:00 +12°C° 0 mm 2 m/s 763 mmHg 64%
    03:00 +11°C° 0.3 mm 3 m/s 763 mmHg 73%
    04:00 +11°C° 0.3 mm 3 m/s 763 mmHg 81%
    05:00 +10°C° 0.3 mm 4 m/s 763 mmHg 89%
    06:00 +12°C° 0.1 mm 4 m/s 763 mmHg 81%
    07:00 +13°C° 0.1 mm 4 m/s 763 mmHg 73%
    08:00 +15°C° 0.1 mm 4 m/s 763 mmHg 64%
    09:00 +17°C° 0.1 mm 3 m/s 763 mmHg 60%
    10:00 +18°C° 0.1 mm 3 m/s 763 mmHg 55%
    11:00 +19°C° 0.1 mm 3 m/s 762 mmHg 50%
    12:00 +19°C° 0 mm 3 m/s 762 mmHg 52%
    13:00 +19°C° 0 mm 3 m/s 762 mmHg 53%
    14:00 +19°C° 0 mm 3 m/s 762 mmHg 54%
    15:00 +19°C° 0 mm 3 m/s 762 mmHg 57%
    16:00 +18°C° 0 mm 3 m/s 762 mmHg 59%
    17:00 +18°C° 0 mm 3 m/s 763 mmHg 61%
    18:00 +17°C° 0 mm 3 m/s 763 mmHg 64%
    19:00 +16°C° 0 mm 3 m/s 763 mmHg 66%
    20:00 +14°C° 0 mm 3 m/s 764 mmHg 68%
    21:00 +14°C° 0 mm 3 m/s 764 mmHg 69%
    22:00 +14°C° 0 mm 3 m/s 764 mmHg 70%
    23:00 +14°C° 0 mm 3 m/s 764 mmHg 70%

    21 Octobre, Dimanche

    Heure Température Précipitation Vent Pression Humidité
    00:00 +14°C° 0 mm 3 m/s 764 mmHg 71%
    01:00 +14°C° 0 mm 3 m/s 764 mmHg 71%
    02:00 +14°C° 0 mm 3 m/s 764 mmHg 71%
    03:00 +14°C° 0 mm 3 m/s 764 mmHg 73%
    04:00 +14°C° 0 mm 2 m/s 764 mmHg 75%
    05:00 +14°C° 0 mm 2 m/s 764 mmHg 76%
    06:00 +16°C° 0 mm 2 m/s 764 mmHg 71%
    07:00 +17°C° 0 mm 3 m/s 765 mmHg 65%
    08:00 +19°C° 0 mm 3 m/s 765 mmHg 60%
    09:00 +20°C° 0 mm 3 m/s 765 mmHg 55%
    10:00 +22°C° 0 mm 3 m/s 765 mmHg 50%
    11:00 +24°C° 0 mm 3 m/s 765 mmHg 46%
    12:00 +24°C° 0 mm 3 m/s 765 mmHg 46%
    13:00 +24°C° 0 mm 3 m/s 765 mmHg 46%
    14:00 +24°C° 0 mm 3 m/s 765 mmHg 46%
    15:00 +22°C° 0 mm 3 m/s 765 mmHg 52%
    16:00 +21°C° 0 mm 3 m/s 765 mmHg 58%
    17:00 +20°C° 0 mm 3 m/s 765 mmHg 64%
    18:00 +18°C° 0 mm 2 m/s 766 mmHg 70%
    19:00 +16°C° 0 mm 2 m/s 766 mmHg 76%
    20:00 +15°C° 0 mm 2 m/s 767 mmHg 82%
    21:00 +14°C° 0 mm 2 m/s 767 mmHg 83%
    22:00 +14°C° 0 mm 1 m/s 767 mmHg 84%
    23:00 +13°C° 0 mm 1 m/s 767 mmHg 85%

    22 Octobre, Lundi

    Heure Température Précipitation Vent Pression Humidité
    00:00 +13°C° 0 mm 1 m/s 767 mmHg 86%
    01:00 +13°C° 0 mm 1 m/s 767 mmHg 87%
    02:00 +12°C° 0 mm 1 m/s 767 mmHg 88%
    03:00 +11°C° 0 mm 1 m/s 767 mmHg 90%
    04:00 +11°C° 0 mm 1 m/s 768 mmHg 91%
    05:00 +10°C° 0 mm 1 m/s 768 mmHg 92%
    06:00 +13°C° 0 mm 1 m/s 768 mmHg 81%
    07:00 +14°C° 0 mm 0 m/s 768 mmHg 70%
    08:00 +17°C° 0 mm 0 m/s 768 mmHg 59%
    09:00 +21°C° 0 mm 1 m/s 768 mmHg 53%
    10:00 +22°C° 0 mm 1 m/s 768 mmHg 48%
    11:00 +24°C° 0 mm 1 m/s 767 mmHg 43%
    12:00 +24°C° 0 mm 1 m/s 767 mmHg 43%
    13:00 +24°C° 0 mm 2 m/s 767 mmHg 43%
    14:00 +24°C° 0 mm 2 m/s 767 mmHg 42%
    15:00 +23°C° 0 mm 2 m/s 767 mmHg 49%
    16:00 +20°C° 0 mm 2 m/s 767 mmHg 56%
    17:00 +19°C° 0 mm 2 m/s 767 mmHg 63%
    18:00 +17°C° 0 mm 2 m/s 767 mmHg 70%
    19:00 +15°C° 0 mm 1 m/s 767 mmHg 78%
    20:00 +13°C° 0 mm 1 m/s 768 mmHg 85%
    21:00 +13°C° 0 mm 1 m/s 768 mmHg 86%
    22:00 +12°C° 0 mm 1 m/s 767 mmHg 87%
    23:00 +12°C° 0 mm 1 m/s 767 mmHg 88%

    23 Octobre, Mardi

    Heure Température Précipitation Vent Pression Humidité
    00:00 +12°C° 0 mm 1 m/s 767 mmHg 87%
    01:00 +12°C° 0 mm 1 m/s 767 mmHg 86%
    02:00 +12°C° 0 mm 1 m/s 766 mmHg 85%
    03:00 +12°C° 0 mm 1 m/s 766 mmHg 81%
    04:00 +12°C° 0 mm 1 m/s 766 mmHg 78%
    05:00 +13°C° 0 mm 1 m/s 766 mmHg 74%
    06:00 +14°C° 0 mm 1 m/s 766 mmHg 68%
    07:00 +16°C° 0 mm 1 m/s 766 mmHg 61%
    08:00 +19°C° 0 mm 1 m/s 766 mmHg 54%
    09:00 +21°C° 0 mm 1 m/s 765 mmHg 47%
    10:00 +23°C° 0 mm 1 m/s 765 mmHg 40%
    11:00 +26°C° 0 mm 1 m/s 764 mmHg 32%
    12:00 +27°C° 0 mm 2 m/s 763 mmHg 32%
    13:00 +27°C° 0 mm 2 m/s 763 mmHg 31%
    14:00 +28°C° 0 mm 2 m/s 762 mmHg 31%
    15:00 +27°C° 0 mm 2 m/s 762 mmHg 37%
    16:00 +25°C° 0 mm 2 m/s 762 mmHg 43%
    17:00 +24°C° 0 mm 2 m/s 762 mmHg 49%
    18:00 +21°C° 0 mm 2 m/s 762 mmHg 51%
    19:00 +19°C° 0 mm 2 m/s 762 mmHg 52%
    20:00 +18°C° 0 mm 2 m/s 762 mmHg 53%
    21:00 +17°C° 0 mm 3 m/s 761 mmHg 55%
    22:00 +16°C° 0 mm 3 m/s 761 mmHg 57%
    23:00 +15°C° 0 mm 4 m/s 760 mmHg 59%
    Voir plus